Change the Weather History Date:

Monday, November 19, 2012

  Actual Average Record
Temperature  
Mean Temperature 42 °F -  
Max Temperature 57 °F 46 °F 73 °F (2007)
Min Temperature 28 °F 23 °F 19 °F (1997)
Degree Days  
Heating Degree Days 22    
Moisture  
Dew Point 15 °F    
Average Humidity 32    
Maximum Humidity 57    
Minimum Humidity 17    
Precipitation  
Precipitation 0.00 in - - ()
Sea Level Pressure  
Sea Level Pressure 30.16 in    
Wind  
Wind Speed 7 mph (NNE)    
Max Wind Speed 10 mph    
Max Gust Speed 18 mph    
Visibility 10 miles    
Events      
Averages and records for this station are not official NWS values.
T = Trace of Precipitation, MM = Missing Value Source: NWS Daily Summary

Daily Weather History Graph

Daily Weather History Graph

Search for Another Location

Airport or City:

Trip Planner

Search our weather history database for the weather conditions in past years. The results will help you decide how hot, cold, wet, or windy it might be!

Date:

Astronomy

Nov. 19, 2012 Rise Set
Actual Time 6:47 AM MST 4:42 PM MST
Civil Twilight 6:18 AM MST 5:10 PM MST
Nautical Twilight 5:45 AM MST 5:43 PM MST
Astronomical Twilight 5:14 AM MST 6:15 PM MST
Moon 11:52 AM MST (11/19) 11:10 PM MST (11/19)
Length of Visible Light 10h 52m
Length of Day
9h 55m
Waxing Crescent, 41% of the Moon is Illuminated
Nov 19
Waxing Crescent
Nov 20
First Quarter
Nov 28
Full
Dec 6
Last Quarter
Dec 13
New

Hourly Weather History & Observations

Time (MST) Temp. Windchill Dew Point Humidity Pressure Visibility Wind Dir Wind Speed Gust Speed Precip Events Conditions
12:58 AM 42.4 °F 37.5 °F 16.0 °F 34% 30.04 in 10.0 mi North 8.1 mph - N/A   Clear
1:58 AM 44.4 °F 42.9 °F 15.8 °F 32% 30.06 in 10.0 mi Variable 3.5 mph - N/A   Clear
2:58 AM 44.2 °F 38.8 °F 15.3 °F 31% 30.06 in 10.0 mi West 10.4 mph - N/A   Clear
3:58 AM 39.2 °F 37.0 °F 14.7 °F 37% 30.09 in 10.0 mi North 3.5 mph - N/A   Clear
4:58 AM 39.9 °F 35.1 °F 14.0 °F 35% 30.12 in 10.0 mi North 6.9 mph - N/A   Clear
5:58 AM 42.6 °F 37.8 °F 14.5 °F 32% 30.12 in 10.0 mi NNE 8.1 mph - N/A   Clear
6:58 AM 37.2 °F 31.9 °F 14.9 °F 40% 30.19 in 10.0 mi NE 6.9 mph - N/A   Clear
7:55 AM 41.4 °F 38.4 °F 15.1 °F 35% 30.11 in 10.0 mi NE 4.6 mph - N/A   Clear
8:55 AM 50.7 °F - 15.1 °F 24% 30.10 in 10.0 mi Variable 3.5 mph - N/A   Clear
9:21 AM 51.8 °F - 15.8 °F 24% 30.05 in 10.0 mi West 8.1 mph 18.4 mph N/A   Clear
9:23 AM 51.8 °F - 15.8 °F 24% 30.05 in 10.0 mi West 9.2 mph 18.4 mph N/A   Clear
9:55 AM 53.4 °F - 14.5 °F 21% 30.05 in 10.0 mi Variable 5.8 mph - N/A   Clear
10:59 AM 55.4 °F - 13.1 °F 19% 30.13 in 10.0 mi ENE 6.9 mph - N/A   Clear
11:54 AM 57.2 °F - 14.0 °F 18% 30.25 in 10.0 mi South 9.2 mph - N/A   Clear
12:54 PM 57.2 °F - 12.2 °F 17% 30.24 in 10.0 mi SSW 9.2 mph - N/A   Clear
1:58 PM 55.9 °F - 13.3 °F 19% 30.13 in 10.0 mi SSE 5.8 mph - N/A   Partly Cloudy
2:58 PM 54.3 °F - 13.1 °F 20% 30.13 in 10.0 mi South 10.4 mph - N/A   Partly Cloudy
3:58 PM 52.7 °F - 15.1 °F 23% 30.17 in 10.0 mi South 8.1 mph - N/A   Clear
4:58 PM 48.6 °F - 14.4 °F 25% 30.19 in 10.0 mi South 6.9 mph - N/A   Partly Cloudy
5:58 PM 44.6 °F 40.7 °F 14.4 °F 30% 30.26 in 10.0 mi SSE 6.9 mph - N/A   Clear
6:58 PM 39.7 °F 36.5 °F 13.8 °F 35% 30.27 in 10.0 mi NE 4.6 mph - N/A   Clear
7:58 PM 37.6 °F 35.1 °F 14.4 °F 39% 30.28 in 10.0 mi North 3.5 mph - N/A   Clear
8:58 PM 29.5 °F 21.1 °F 13.3 °F 51% 30.28 in 10.0 mi NNW 9.2 mph - N/A   Clear
9:58 PM 30.7 °F 22.6 °F 14.4 °F 51% 30.28 in 10.0 mi North 9.2 mph - N/A   Clear
10:58 PM 28.9 °F 20.4 °F 15.3 °F 57% 30.28 in 10.0 mi North 9.2 mph - N/A   Clear
11:58 PM 31.1 °F 22.4 °F 15.3 °F 52% 30.27 in 10.0 mi NNE 10.4 mph - N/A   Clear